Regional Weather Roundup
Issued by NWS

Home | Current Version | Previous Version | Graphics & Text | Print | Product List | Glossary On
Versions: 1 2 3 4 5 6 7 8 9 10 11 12 13 14 15 16 17 18 19 20 21 22 23 24 25 26 27 28 29 30 31 32 33 34 35 36 37 38 39 40 41 42 43 44 45 46 47 48 49 50
000
ASUS43 KIND 182200
RWRIN

WEATHER ROUNDUP FOR INDIANA
NATIONAL WEATHER SERVICE INDIANAPOLIS IN
600 PM EDT WED OCT 18 2017

NOTE: "FAIR" INDICATES FEW OR NO CLOUDS BELOW 12,000 FEET WITH NO
SIGNIFICANT WEATHER AND/OR OBSTRUCTIONS TO VISIBILITY.

* - STATION DOES NOT REPORT WEATHER SUCH AS PRECIPITATION OR FOG.

+ - STATION NOT QUALITY CONTROLLED BY THE NATIONAL WEATHER SERVICE.
    USE DATA WITH CAUTION...ESPECIALLY DEWPOINT AND RELATIVE
    HUMIDITY OBSERVATIONS.

INZ001>003-010>013-019-020-182300-
NORTHWEST INDIANA

CITY           SKY/WX    TMP DP  RH WIND       PRES   REMARKS
GARY /AIRPORT/ SUNNY     70  34  26 SW10G22   30.05F
MICHIGAN CITY+ CLEAR     66  41  39 S10       30.07F
MONTICELLO +   SUNNY     67  39  35 S12       30.11F
RENSSELAER +   SUNNY     68  27  21 S9G17     30.10F

$$

LMZ046-743>745-182300-
SOUTHERN LAKE MICHIGAN

STATION/POSITION TIME  TEMP    WIND        PRES    WAVE
                       AIR SEA DIR/SP/G            HT
                 (UTC) (F)     (DEG/KT/KT) (MB)    (FT)
BURNS HARBOR     2140   69     180/ 15/ 21 1017.9F
MICHIGAN CITY    2130   68     170/ 11/ 14   N/A
5NW MICH CITY    2150   65 58  200/ 14/ 17   N/A     2

$$

INZ004-005-014>016-021>024-182300-
NORTH CENTRAL INDIANA

CITY           SKY/WX    TMP DP  RH WIND       PRES   REMARKS
ELKHART        CLEAR     66  37  34 SW14      30.09F
GOSHEN         CLEAR     66  38  35 S14       30.11F
PERU/GRISSOM   CLEAR     67  41  39 S14       30.13F
SOUTH BEND     CLEAR     66  40  38 S14       30.09F

$$

INZ006>009-017-018-025>027-182300-
NORTHEAST INDIANA

CITY           SKY/WX    TMP DP  RH WIND       PRES   REMARKS
FORT WAYNE     PTCLDY    67  39  35 SW15      30.14F
KENDALLVILLE + CLEAR     66  38  35 SW13G20   30.13F

$$

INZ028-029-035-036-043>045-051>053-182300-
WEST CENTRAL INDIANA

CITY           SKY/WX    TMP DP  RH WIND       PRES   REMARKS
LAFAYETTE      SUNNY     67  42  40 S8G17     30.12F
TERRE HAUTE    SUNNY     68  43  40 S13       30.15F

$$

INZ030>032-037>040-046>048-054>057-064-065-182300-
CENTRAL INDIANA

CITY           SKY/WX    TMP DP  RH WIND       PRES   REMARKS
INDIANAPOLIS   MOSUNNY   68  44  42 S14       30.17S
-EAGLE CREEK   SUNNY     68  42  38 S10       30.16S
KOKOMO +       CLEAR     67  43  41 S12       30.15F
MT COMFORT *+  SUNNY     68  48  49 S9        30.17F
SHELBYVILLE    SUNNY     69  41  36 S10       30.17F

$$

INZ033-034-041-042-049-050-058-059-182300-
EAST CENTRAL INDIANA

CITY           SKY/WX    TMP DP  RH WIND       PRES   REMARKS
MUNCIE         CLEAR     69  38  32 S13       30.16F
RICHMOND +     CLEAR     64  37  36 S9        30.20S

$$

INZ060-061-067>069-081>083-085>088-182300-
SOUTHWEST INDIANA

CITY           SKY/WX    TMP DP  RH WIND       PRES   REMARKS
EVANSVILLE     SUNNY     70  44  39 S9        30.18F
HUNTINGBURG +  SUNNY     68  46  45 S10       30.20S

$$

INZ062-063-066-070>080-084-089>092-182300-
SOUTH CENTRAL AND SOUTHEAST INDIANA

CITY           SKY/WX    TMP DP  RH WIND       PRES   REMARKS
BLOOMINGTON    SUNNY     68  43  40 S8        30.18S
MADISON *+     SUNNY     68  41  37 SE5       30.23S
SEYMOUR +      SUNNY     70  45  40 S6        30.20F

$$





USA.gov is the U.S. government's official web portal to all federal, state and local government web resources and services.